AEOLUS (43600 NORAD) Tracking and Keplerian Element Data

This shows tracking and keplerian element data for the satellite.

Feedback or suggestion? Click here.




ElementValue
Catalog43600
NameAEOLUS
Epoch Orbit5130
Epoch Day193.52421032
Epoch Year2019
RAAN200.006
Inclination96.7212
Eccentricity0.000332
Argument of Perigee81.9501
Mean Anonmoly38.3584
Mean Motion15.86741119
Decay Rate0.00019985
L11 43600U 18066A 19193.52421032 .00019985 00000-0 79284-4 0 9992
L22 43600 96.7212 200.0060 0003320 81.9501 38.3584 15.86741119 51305

Live tracking and technical data element details for AEOLUS (NORAD 43600). AEOLUS can be tracked NOW for your location showing map with azimuth and elevation plus other details from your city location.

Track the satellite on the map from your city or location and see movement details for azimuth, elevation, latitude, longitude, range, height, and movement on the map or in text.







IsCatalogInMostPopularTable: catalog: 43600, numindb: 143
Update: records affected: 2



GetName: 43600 AEOLUS

Hit Count: updated at: Tue, 16 Jul 2019 15:25:23 GMT